Time,TemperatureF,DewpointF,PressureIn,WindDirection,WindDirectionDegrees,WindSpeedMPH,WindSpeedGustMPH,Humidity,HourlyPrecipIn,Conditions,Clouds,dailyrainin,SoftwareType,DateUTC
2013-09-07 00:02:00,69.1,37.9,30.00,ESE,115,0.0,0.0,32,0.00,,,-99.99,Weather View 32 v60,2013-09-07 04:02:00,
2013-09-07 00:07:00,69.1,37.9,30.00,ESE,115,0.0,0.0,32,0.00,,,-99.99,Weather View 32 v60,2013-09-07 04:07:00,
2013-09-07 00:12:00,69.1,37.9,30.00,ESE,115,0.0,0.0,32,0.00,,,-99.99,Weather View 32 v60,2013-09-07 04:12:00,
2013-09-07 00:17:00,68.9,37.8,30.00,ESE,115,0.0,0.0,32,0.00,,,-99.99,Weather View 32 v60,2013-09-07 04:17:00,
2013-09-07 00:27:00,68.7,38.4,30.03,ESE,115,0.0,0.0,33,0.00,,,-99.99,Weather View 32 v60,2013-09-07 04:27:00,
2013-09-07 00:36:00,68.7,38.4,30.03,ESE,115,0.0,0.0,33,0.00,,,-99.99,Weather View 32 v60,2013-09-07 04:36:00,
2013-09-07 00:42:00,68.5,38.2,30.03,ESE,115,0.0,0.0,33,0.00,,,-99.99,Weather View 32 v60,2013-09-07 04:42:00,
2013-09-07 00:47:00,68.5,38.2,30.03,ESE,115,0.0,0.0,33,0.00,,,-99.99,Weather View 32 v60,2013-09-07 04:47:00,
2013-09-07 00:57:00,68.4,38.1,30.03,ESE,115,0.0,0.0,33,0.00,,,-99.99,Weather View 32 v60,2013-09-07 04:57:00,
2013-09-07 01:02:00,68.2,37.9,30.03,ESE,115,0.0,0.0,33,0.00,,,-99.99,Weather View 32 v60,2013-09-07 05:02:00,
2013-09-07 01:12:00,68.2,37.9,30.03,ESE,115,0.0,0.0,33,0.00,,,-99.99,Weather View 32 v60,2013-09-07 05:12:00,
2013-09-07 01:17:00,68.0,37.8,30.03,ESE,115,0.0,0.0,33,0.00,,,-99.99,Weather View 32 v60,2013-09-07 05:17:00,
2013-09-07 01:27:00,68.0,38.5,30.03,ESE,115,0.0,0.0,34,0.00,,,-99.99,Weather View 32 v60,2013-09-07 05:27:00,
2013-09-07 01:32:00,67.8,38.4,30.03,ESE,115,0.0,0.0,34,0.00,,,-99.99,Weather View 32 v60,2013-09-07 05:32:00,
2013-09-07 01:42:00,67.8,38.4,30.03,ESE,115,0.0,0.0,34,0.00,,,-99.99,Weather View 32 v60,2013-09-07 05:42:00,
2013-09-07 01:47:00,67.8,38.4,30.03,ESE,115,0.0,0.0,34,0.00,,,-99.99,Weather View 32 v60,2013-09-07 05:47:00,
2013-09-07 01:58:00,67.8,38.4,30.00,ESE,115,0.0,0.0,34,0.00,,,-99.99,Weather View 32 v60,2013-09-07 05:58:00,
2013-09-07 02:07:00,67.6,38.2,30.00,ESE,115,0.0,0.0,34,0.00,,,-99.99,Weather View 32 v60,2013-09-07 06:07:00,
2013-09-07 02:17:00,67.5,38.0,30.00,ESE,115,0.0,0.0,34,0.00,,,-99.99,Weather View 32 v60,2013-09-07 06:17:00,
2013-09-07 02:22:00,67.5,38.0,30.00,ESE,115,0.0,0.0,34,0.00,,,-99.99,Weather View 32 v60,2013-09-07 06:22:00,
2013-09-07 02:32:00,67.5,38.8,30.00,ESE,115,0.0,0.0,35,0.00,,,-99.99,Weather View 32 v60,2013-09-07 06:32:00,
2013-09-07 02:38:00,67.3,38.6,30.00,ESE,115,0.0,0.0,35,0.00,,,-99.99,Weather View 32 v60,2013-09-07 06:38:00,
2013-09-07 02:47:00,67.3,38.6,30.00,ESE,115,0.0,0.0,35,0.00,,,-99.99,Weather View 32 v60,2013-09-07 06:47:00,
2013-09-07 02:52:00,67.1,38.5,30.00,ESE,115,0.0,0.0,35,0.00,,,-99.99,Weather View 32 v60,2013-09-07 06:52:00,
2013-09-07 02:58:00,67.1,38.5,30.00,ESE,115,0.0,0.0,35,0.00,,,-99.99,Weather View 32 v60,2013-09-07 06:58:00,
2013-09-07 03:07:00,67.1,38.5,30.00,ESE,115,0.0,0.0,35,0.00,,,-99.99,Weather View 32 v60,2013-09-07 07:07:00,
2013-09-07 03:17:00,67.3,38.6,30.00,ESE,115,0.0,0.0,35,0.00,,,-99.99,Weather View 32 v60,2013-09-07 07:17:00,
2013-09-07 03:22:00,67.1,38.5,30.00,ESE,115,0.0,0.0,35,0.00,,,-99.99,Weather View 32 v60,2013-09-07 07:22:00,
2013-09-07 03:27:00,67.1,38.5,30.00,ESE,115,0.0,0.0,35,0.00,,,-99.99,Weather View 32 v60,2013-09-07 07:27:00,
2013-09-07 03:38:00,66.9,39.0,30.00,ESE,115,0.0,0.0,36,0.00,,,-99.99,Weather View 32 v60,2013-09-07 07:38:00,
2013-09-07 03:47:00,66.9,39.0,30.00,ESE,115,0.0,0.0,36,0.00,,,-99.99,Weather View 32 v60,2013-09-07 07:47:00,
2013-09-07 03:52:00,66.9,39.0,30.00,ESE,115,0.0,0.0,36,0.00,,,-99.99,Weather View 32 v60,2013-09-07 07:52:00,
2013-09-07 04:02:00,67.1,39.2,30.00,ESE,115,0.0,0.0,36,0.00,,,-99.99,Weather View 32 v60,2013-09-07 08:02:00,
2013-09-07 04:07:00,67.1,39.9,30.00,ESE,115,0.0,0.0,37,0.00,,,-99.99,Weather View 32 v60,2013-09-07 08:07:00,
2013-09-07 04:12:00,67.1,39.2,30.00,ESE,115,0.0,0.0,36,0.00,,,-99.99,Weather View 32 v60,2013-09-07 08:12:00,
2013-09-07 04:22:00,67.1,39.2,30.00,ESE,115,0.0,0.0,36,0.00,,,-99.99,Weather View 32 v60,2013-09-07 08:22:00,
2013-09-07 04:32:00,67.1,39.9,30.00,ESE,115,0.0,0.0,37,0.00,,,-99.99,Weather View 32 v60,2013-09-07 08:32:00,
2013-09-07 04:37:00,67.1,39.9,30.00,ESE,115,0.0,0.0,37,0.00,,,-99.99,Weather View 32 v60,2013-09-07 08:37:00,
2013-09-07 04:47:00,66.9,39.7,30.00,ESE,115,0.0,0.0,37,0.00,,,-99.99,Weather View 32 v60,2013-09-07 08:47:00,
2013-09-07 04:52:00,66.9,39.7,30.00,ESE,115,0.0,0.0,37,0.00,,,-99.99,Weather View 32 v60,2013-09-07 08:52:00,
2013-09-07 04:57:00,66.9,39.7,30.00,ESE,115,0.0,0.0,37,0.00,,,-99.99,Weather View 32 v60,2013-09-07 08:57:00,
2013-09-07 05:07:00,66.9,39.7,30.00,ESE,115,0.0,0.0,37,0.00,,,-99.99,Weather View 32 v60,2013-09-07 09:07:00,
2013-09-07 05:12:00,66.9,39.7,30.00,ESE,115,0.0,0.0,37,0.00,,,-99.99,Weather View 32 v60,2013-09-07 09:12:00,
2013-09-07 05:17:00,67.1,40.6,30.00,ESE,115,0.0,0.0,38,0.00,,,-99.99,Weather View 32 v60,2013-09-07 09:17:00,
2013-09-07 05:22:00,67.1,40.6,30.00,ESE,115,0.0,0.0,38,0.00,,,-99.99,Weather View 32 v60,2013-09-07 09:22:00,
2013-09-07 05:32:00,67.1,39.9,30.00,ESE,115,0.0,0.0,37,0.00,,,-99.99,Weather View 32 v60,2013-09-07 09:32:00,
2013-09-07 05:37:00,67.1,40.6,30.00,ESE,115,0.0,0.0,38,0.00,,,-99.99,Weather View 32 v60,2013-09-07 09:37:00,
2013-09-07 05:42:00,66.9,40.4,30.00,ESE,115,0.0,0.0,38,0.00,,,-99.99,Weather View 32 v60,2013-09-07 09:42:00,
2013-09-07 05:52:00,66.9,40.4,30.00,ESE,115,0.0,0.0,38,0.00,,,-99.99,Weather View 32 v60,2013-09-07 09:52:00,
2013-09-07 06:02:00,66.9,40.4,30.00,ESE,115,0.0,0.0,38,0.00,,,-99.99,Weather View 32 v60,2013-09-07 10:02:00,
2013-09-07 06:07:00,66.9,40.4,30.00,ESE,115,0.0,0.0,38,0.00,,,-99.99,Weather View 32 v60,2013-09-07 10:07:00,
2013-09-07 06:17:00,66.7,40.3,30.03,ESE,115,0.0,0.0,38,0.00,,,-99.99,Weather View 32 v60,2013-09-07 10:17:00,
2013-09-07 06:22:00,66.6,40.1,30.03,ESE,115,0.0,0.0,38,0.00,,,-99.99,Weather View 32 v60,2013-09-07 10:22:00,
2013-09-07 06:32:00,66.6,40.1,30.03,ESE,115,0.0,0.0,38,0.00,,,-99.99,Weather View 32 v60,2013-09-07 10:32:00,
2013-09-07 06:37:00,66.6,40.1,30.03,ESE,115,0.0,0.0,38,0.00,,,-99.99,Weather View 32 v60,2013-09-07 10:37:00,
2013-09-07 06:47:00,66.2,39.8,30.03,ESE,115,0.0,0.0,38,0.00,,,-99.99,Weather View 32 v60,2013-09-07 10:47:00,
2013-09-07 06:52:00,66.2,39.8,30.03,ESE,115,0.0,0.0,38,0.00,,,-99.99,Weather View 32 v60,2013-09-07 10:52:00,
2013-09-07 07:02:00,66.0,40.3,30.03,ESE,115,0.0,0.0,39,0.00,,,-99.99,Weather View 32 v60,2013-09-07 11:02:00,
2013-09-07 07:07:00,66.0,40.3,30.03,ESE,115,0.0,0.0,39,0.00,,,-99.99,Weather View 32 v60,2013-09-07 11:07:00,
2013-09-07 07:17:00,65.7,40.0,30.03,ESE,115,0.0,0.0,39,0.00,,,-99.99,Weather View 32 v60,2013-09-07 11:17:00,
2013-09-07 07:22:00,65.7,40.0,30.03,ESE,115,0.0,0.0,39,0.00,,,-99.99,Weather View 32 v60,2013-09-07 11:22:00,
2013-09-07 07:32:00,65.5,39.8,30.03,ESE,115,0.0,0.0,39,0.00,,,-99.99,Weather View 32 v60,2013-09-07 11:32:00,
2013-09-07 07:37:00,65.5,39.8,30.03,ESE,115,0.0,0.0,39,0.00,,,-99.99,Weather View 32 v60,2013-09-07 11:37:00,
2013-09-07 07:42:00,65.5,39.8,30.03,ESE,115,0.0,0.0,39,0.00,,,-99.99,Weather View 32 v60,2013-09-07 11:42:00,
2013-09-07 07:47:00,65.5,39.8,30.03,ESE,115,0.0,0.0,39,0.00,,,-99.99,Weather View 32 v60,2013-09-07 11:47:00,
2013-09-07 07:57:00,65.5,39.8,30.03,ESE,115,0.0,0.0,39,0.00,,,-99.99,Weather View 32 v60,2013-09-07 11:57:00,
2013-09-07 08:02:00,65.5,39.8,30.03,ESE,115,0.0,0.0,39,0.00,,,-99.99,Weather View 32 v60,2013-09-07 12:02:00,
2013-09-07 08:07:00,65.5,40.5,30.03,ESE,115,0.0,0.0,40,0.00,,,-99.99,Weather View 32 v60,2013-09-07 12:07:00,
2013-09-07 08:17:00,65.7,40.6,30.03,ESE,115,0.0,0.0,40,0.00,,,-99.99,Weather View 32 v60,2013-09-07 12:17:00,
2013-09-07 08:22:00,65.8,40.8,30.03,ESE,115,0.0,0.0,40,0.00,,,-99.99,Weather View 32 v60,2013-09-07 12:22:00,
2013-09-07 08:32:00,66.2,41.7,30.03,ESE,115,0.0,0.0,41,0.00,,,-99.99,Weather View 32 v60,2013-09-07 12:32:00,
2013-09-07 08:38:00,66.6,42.1,30.03,ESE,115,0.0,0.0,41,0.00,,,-99.99,Weather View 32 v60,2013-09-07 12:38:00,
2013-09-07 08:47:00,66.9,42.4,30.03,ESE,115,0.0,0.0,41,0.00,,,-99.99,Weather View 32 v60,2013-09-07 12:47:00,
2013-09-07 08:52:00,67.1,42.6,30.03,ESE,115,0.0,0.0,41,0.00,,,-99.99,Weather View 32 v60,2013-09-07 12:52:00,
2013-09-07 08:58:00,67.3,42.7,30.03,ESE,115,0.0,0.0,41,0.00,,,-99.99,Weather View 32 v60,2013-09-07 12:58:00,
2013-09-07 09:07:00,67.8,43.2,30.03,ESE,115,0.0,0.0,41,0.00,,,-99.99,Weather View 32 v60,2013-09-07 13:07:00,
2013-09-07 09:12:00,68.0,44.0,30.03,ESE,115,0.0,0.0,42,0.00,,,-99.99,Weather View 32 v60,2013-09-07 13:12:00,
2013-09-07 09:17:00,68.2,44.2,30.03,ESE,115,0.0,0.0,42,0.00,,,-99.99,Weather View 32 v60,2013-09-07 13:17:00,
2013-09-07 09:22:00,68.4,44.3,30.03,ESE,115,0.0,0.0,42,0.00,,,-99.99,Weather View 32 v60,2013-09-07 13:22:00,
2013-09-07 09:27:00,68.7,44.6,30.06,ESE,115,0.0,0.0,42,0.00,,,-99.99,Weather View 32 v60,2013-09-07 13:27:00,
2013-09-07 09:37:00,69.3,45.1,30.06,ESE,115,0.0,0.0,42,0.00,,,-99.99,Weather View 32 v60,2013-09-07 13:37:00,
2013-09-07 09:47:00,69.8,45.6,30.03,ESE,115,0.0,0.0,42,0.00,,,-99.99,Weather View 32 v60,2013-09-07 13:47:00,
2013-09-07 09:57:00,70.5,46.3,30.06,ESE,115,0.0,0.0,42,0.00,,,-99.99,Weather View 32 v60,2013-09-07 13:57:00,
2013-09-07 10:02:00,70.7,45.8,30.06,ESE,115,0.0,0.0,41,0.00,,,-99.99,Weather View 32 v60,2013-09-07 14:02:00,
2013-09-07 10:12:00,71.2,46.3,30.06,ESE,115,0.0,0.0,41,0.00,,,-99.99,Weather View 32 v60,2013-09-07 14:12:00,
2013-09-07 10:17:00,71.4,45.8,30.06,ESE,115,0.0,0.0,40,0.00,,,-99.99,Weather View 32 v60,2013-09-07 14:17:00,
2013-09-07 10:27:00,71.8,45.4,30.06,ESE,115,0.0,0.0,39,0.00,,,-99.99,Weather View 32 v60,2013-09-07 14:27:00,
2013-09-07 10:33:00,71.8,45.4,30.06,ESE,115,0.0,0.0,39,0.00,,,-99.99,Weather View 32 v60,2013-09-07 14:33:00,
2013-09-07 10:41:00,72.0,44.9,30.06,ESE,115,0.0,0.0,38,0.00,,,-99.99,Weather View 32 v60,2013-09-07 14:41:00,
2013-09-07 10:47:00,72.1,44.4,30.06,ESE,115,0.0,0.0,37,0.00,,,-99.99,Weather View 32 v60,2013-09-07 14:47:00,
2013-09-07 10:57:00,72.3,43.8,30.06,ESE,115,0.0,0.0,36,0.00,,,-99.99,Weather View 32 v60,2013-09-07 14:57:00,
2013-09-07 11:02:00,72.3,43.1,30.06,ESE,115,0.0,0.0,35,0.00,,,-99.99,Weather View 32 v60,2013-09-07 15:02:00,
2013-09-07 11:07:00,72.5,43.2,30.06,ESE,115,0.0,0.0,35,0.00,,,-99.99,Weather View 32 v60,2013-09-07 15:07:00,
2013-09-07 11:17:00,72.9,42.8,30.06,ESE,115,0.0,0.0,34,0.00,,,-99.99,Weather View 32 v60,2013-09-07 15:17:00,
2013-09-07 11:22:00,72.9,42.0,30.06,ESE,115,0.0,0.0,33,0.00,,,-99.99,Weather View 32 v60,2013-09-07 15:22:00,
2013-09-07 11:27:00,73.0,42.2,30.06,ESE,115,0.0,0.0,33,0.00,,,-99.99,Weather View 32 v60,2013-09-07 15:27:00,
2013-09-07 11:32:00,73.6,42.6,30.06,ESE,115,0.0,0.0,33,0.00,,,-99.99,Weather View 32 v60,2013-09-07 15:32:00,
2013-09-07 11:37:00,74.1,43.1,30.06,SE,125,0.0,0.0,33,0.00,,,-99.99,Weather View 32 v60,2013-09-07 15:37:00,
2013-09-07 11:42:00,74.5,42.6,30.03,SW,232,0.0,0.0,32,0.00,,,-99.99,Weather View 32 v60,2013-09-07 15:42:00,
2013-09-07 11:52:00,75.4,42.6,30.03,SSW,213,0.0,0.0,31,0.00,,,-99.99,Weather View 32 v60,2013-09-07 15:52:00,
2013-09-07 11:58:00,75.7,42.9,30.03,WSW,257,0.0,0.0,31,0.00,,,-99.99,Weather View 32 v60,2013-09-07 15:58:00,
2013-09-07 12:07:00,76.5,41.8,30.03,WSW,243,0.0,0.0,29,0.00,,,-99.99,Weather View 32 v60,2013-09-07 16:07:00,
2013-09-07 12:12:00,77.0,41.3,30.03,South,186,0.0,0.0,28,0.00,,,-99.99,Weather View 32 v60,2013-09-07 16:12:00,
2013-09-07 12:22:00,78.1,40.3,30.03,SE,145,0.0,0.0,26,0.00,,,-99.99,Weather View 32 v60,2013-09-07 16:22:00,
2013-09-07 12:32:00,79.3,39.3,30.03,SSW,209,0.0,0.0,24,0.00,,,-99.99,Weather View 32 v60,2013-09-07 16:32:00,
2013-09-07 12:37:00,79.5,38.4,30.03,SW,227,0.0,0.0,23,0.00,,,-99.99,Weather View 32 v60,2013-09-07 16:37:00,
2013-09-07 12:43:00,80.1,37.7,30.03,SE,128,0.0,0.0,22,0.00,,,-99.99,Weather View 32 v60,2013-09-07 16:43:00,
2013-09-07 12:52:00,81.3,37.5,30.03,ESE,118,0.0,0.0,21,0.00,,,-99.99,Weather View 32 v60,2013-09-07 16:52:00,
2013-09-07 13:02:00,82.2,37.0,30.00,ESE,104,0.0,0.0,20,0.00,,,-99.99,Weather View 32 v60,2013-09-07 17:02:00,
2013-09-07 13:07:00,82.4,35.9,30.00,WSW,245,0.0,0.0,19,0.00,,,-99.99,Weather View 32 v60,2013-09-07 17:07:00,
2013-09-07 13:12:00,82.4,35.9,30.00,ESE,115,0.0,0.0,19,0.00,,,-99.99,Weather View 32 v60,2013-09-07 17:12:00,
2013-09-07 13:17:00,82.9,36.3,30.00,SSE,152,0.0,0.0,19,0.00,,,-99.99,Weather View 32 v60,2013-09-07 17:17:00,
2013-09-07 13:22:00,83.1,36.5,30.00,ESE,114,0.0,0.0,19,0.00,,,-99.99,Weather View 32 v60,2013-09-07 17:22:00,
2013-09-07 13:32:00,83.3,35.3,30.00,SE,137,0.0,0.0,18,0.00,,,-99.99,Weather View 32 v60,2013-09-07 17:32:00,
2013-09-07 13:42:00,83.3,32.3,30.00,East,96,0.0,0.0,16,0.00,,,-99.99,Weather View 32 v60,2013-09-07 17:42:00,
2013-09-07 13:47:00,83.7,32.6,30.00,SE,130,0.0,0.0,16,0.00,,,-99.99,Weather View 32 v60,2013-09-07 17:47:00,
2013-09-07 13:52:00,84.2,33.0,30.00,ESE,122,0.0,0.0,16,0.00,,,-99.99,Weather View 32 v60,2013-09-07 17:52:00,
2013-09-07 13:57:00,84.4,33.2,30.00,ESE,116,0.0,0.0,16,0.00,,,-99.99,Weather View 32 v60,2013-09-07 17:57:00,
2013-09-07 14:02:00,84.2,27.9,30.00,East,95,0.0,0.0,13,0.00,,,-99.99,Weather View 32 v60,2013-09-07 18:02:00,
2013-09-07 14:12:00,84.2,27.9,30.00,SW,234,0.0,0.0,13,0.00,,,-99.99,Weather View 32 v60,2013-09-07 18:12:00,
2013-09-07 14:22:00,84.4,28.0,30.00,SW,221,0.0,0.0,13,0.00,,,-99.99,Weather View 32 v60,2013-09-07 18:22:00,
2013-09-07 14:27:00,84.6,28.2,30.00,WNW,296,0.0,0.0,13,0.00,,,-99.99,Weather View 32 v60,2013-09-07 18:27:00,
2013-09-07 14:32:00,84.4,28.0,30.00,West,259,0.0,0.0,13,0.00,,,-99.99,Weather View 32 v60,2013-09-07 18:32:00,
2013-09-07 14:37:00,84.4,28.0,30.00,West,261,0.0,0.0,13,0.00,,,-99.99,Weather View 32 v60,2013-09-07 18:37:00,
2013-09-07 14:42:00,84.4,28.0,29.97,SW,219,0.0,0.0,13,0.00,,,-99.99,Weather View 32 v60,2013-09-07 18:42:00,
2013-09-07 14:52:00,84.6,28.2,29.97,West,276,0.0,0.0,13,0.00,,,-99.99,Weather View 32 v60,2013-09-07 18:52:00,
2013-09-07 15:02:00,84.2,27.9,29.97,West,277,0.0,0.0,13,0.00,,,-99.99,Weather View 32 v60,2013-09-07 19:02:00,
2013-09-07 15:07:00,84.0,27.8,29.97,WNW,284,0.0,0.0,13,0.00,,,-99.99,Weather View 32 v60,2013-09-07 19:07:00,
2013-09-07 15:17:00,83.7,27.5,29.97,West,271,0.0,0.0,13,0.00,,,-99.99,Weather View 32 v60,2013-09-07 19:17:00,
2013-09-07 15:27:00,83.5,27.3,29.97,WNW,282,0.0,0.0,13,0.00,,,-99.99,Weather View 32 v60,2013-09-07 19:27:00,
2013-09-07 15:32:00,83.5,27.3,29.97,WNW,289,0.0,0.0,13,0.00,,,-99.99,Weather View 32 v60,2013-09-07 19:32:00,
2013-09-07 15:37:00,83.3,27.2,29.97,West,264,0.0,0.0,13,0.00,,,-99.99,Weather View 32 v60,2013-09-07 19:37:00,
2013-09-07 15:42:00,83.3,29.0,29.94,WNW,282,0.0,0.0,14,0.00,,,-99.99,Weather View 32 v60,2013-09-07 19:42:00,
2013-09-07 15:52:00,83.5,27.3,29.94,WNW,283,0.0,0.0,13,0.00,,,-99.99,Weather View 32 v60,2013-09-07 19:52:00,
2013-09-07 15:58:00,83.3,27.2,29.94,West,277,0.0,0.0,13,0.00,,,-99.99,Weather View 32 v60,2013-09-07 19:58:00,
2013-09-07 16:07:00,83.3,29.0,29.94,West,274,0.0,0.0,14,0.00,,,-99.99,Weather View 32 v60,2013-09-07 20:07:00,
2013-09-07 16:12:00,83.1,28.9,29.94,SE,143,0.0,0.0,14,0.00,,,-99.99,Weather View 32 v60,2013-09-07 20:12:00,
2013-09-07 16:17:00,83.1,28.9,29.94,South,180,0.0,0.0,14,0.00,,,-99.99,Weather View 32 v60,2013-09-07 20:17:00,
2013-09-07 16:22:00,82.9,28.7,29.94,West,279,0.0,0.0,14,0.00,,,-99.99,Weather View 32 v60,2013-09-07 20:22:00,
2013-09-07 16:27:00,82.8,28.6,29.94,NNW,341,0.0,0.0,14,0.00,,,-99.99,Weather View 32 v60,2013-09-07 20:27:00,
2013-09-07 16:37:00,82.4,28.3,29.94,West,280,0.0,0.0,14,0.00,,,-99.99,Weather View 32 v60,2013-09-07 20:37:00,
2013-09-07 16:43:00,82.2,28.2,29.94,West,276,0.0,0.0,14,0.00,,,-99.99,Weather View 32 v60,2013-09-07 20:43:00,
2013-09-07 16:52:00,82.0,28.0,29.94,SE,128,0.0,0.0,14,0.00,,,-99.99,Weather View 32 v60,2013-09-07 20:52:00,
2013-09-07 17:02:00,81.9,27.9,29.91,WSW,245,0.0,0.0,14,0.00,,,-99.99,Weather View 32 v60,2013-09-07 21:02:00,
2013-09-07 17:07:00,81.7,27.7,29.91,South,173,0.0,0.0,14,0.00,,,-99.99,Weather View 32 v60,2013-09-07 21:07:00,
2013-09-07 17:17:00,81.5,27.6,29.91,WSW,255,0.0,0.0,14,0.00,,,-99.99,Weather View 32 v60,2013-09-07 21:17:00,
2013-09-07 17:27:00,81.1,27.3,29.91,WSW,242,0.0,0.0,14,0.00,,,-99.99,Weather View 32 v60,2013-09-07 21:27:00,
2013-09-07 17:37:00,81.0,27.2,29.91,ESE,115,0.0,0.0,14,0.00,,,-99.99,Weather View 32 v60,2013-09-07 21:37:00,
2013-09-07 17:42:00,81.0,27.2,29.91,WSW,245,0.0,0.0,14,0.00,,,-99.99,Weather View 32 v60,2013-09-07 21:42:00,
2013-09-07 17:47:00,80.8,27.0,29.91,ESE,106,0.0,0.0,14,0.00,,,-99.99,Weather View 32 v60,2013-09-07 21:47:00,
2013-09-07 17:52:00,80.6,26.9,29.91,ESE,121,0.0,0.0,14,0.00,,,-99.99,Weather View 32 v60,2013-09-07 21:52:00,
2013-09-07 18:02:00,80.2,26.6,29.91,ESE,121,0.0,0.0,14,0.00,,,-99.99,Weather View 32 v60,2013-09-07 22:02:00,
2013-09-07 18:07:00,80.1,26.5,29.91,ESE,121,0.0,0.0,14,0.00,,,-99.99,Weather View 32 v60,2013-09-07 22:07:00,
2013-09-07 18:17:00,79.9,26.3,29.91,West,271,0.0,0.0,14,0.00,,,-99.99,Weather View 32 v60,2013-09-07 22:17:00,
2013-09-07 18:22:00,79.5,27.7,29.91,West,271,0.0,0.0,15,0.00,,,-99.99,Weather View 32 v60,2013-09-07 22:22:00,
2013-09-07 18:33:00,79.3,27.6,29.91,West,271,0.0,0.0,15,0.00,,,-99.99,Weather View 32 v60,2013-09-07 22:33:00,
2013-09-07 18:42:00,79.0,27.3,29.91,West,271,0.0,0.0,15,0.00,,,-99.99,Weather View 32 v60,2013-09-07 22:42:00,
2013-09-07 18:47:00,78.8,27.1,29.91,West,271,0.0,0.0,15,0.00,,,-99.99,Weather View 32 v60,2013-09-07 22:47:00,
2013-09-07 18:52:00,78.6,27.0,29.91,West,271,0.0,0.0,15,0.00,,,-99.99,Weather View 32 v60,2013-09-07 22:52:00,
2013-09-07 19:02:00,78.3,26.7,29.91,West,271,0.0,0.0,15,0.00,,,-99.99,Weather View 32 v60,2013-09-07 23:02:00,
2013-09-07 19:12:00,77.5,26.1,29.91,West,271,0.0,0.0,15,0.00,,,-99.99,Weather View 32 v60,2013-09-07 23:12:00,
2013-09-07 19:17:00,77.4,26.0,29.91,West,271,0.0,0.0,15,0.00,,,-99.99,Weather View 32 v60,2013-09-07 23:17:00,
2013-09-07 19:27:00,76.8,30.0,29.91,West,271,0.0,0.0,18,0.00,,,-99.99,Weather View 32 v60,2013-09-07 23:27:00,
2013-09-07 19:33:00,76.6,29.9,29.91,West,271,0.0,0.0,18,0.00,,,-99.99,Weather View 32 v60,2013-09-07 23:33:00,
2013-09-07 19:42:00,76.3,29.6,29.91,West,271,0.0,0.0,18,0.00,,,-99.99,Weather View 32 v60,2013-09-07 23:42:00,
2013-09-07 19:52:00,75.7,29.1,29.91,West,271,0.0,0.0,18,0.00,,,-99.99,Weather View 32 v60,2013-09-07 23:52:00,
2013-09-07 20:02:00,75.4,31.4,29.91,West,271,0.0,0.0,20,0.00,,,-99.99,Weather View 32 v60,2013-09-08 00:02:00,
2013-09-07 20:07:00,75.2,31.3,29.91,West,271,0.0,0.0,20,0.00,,,-99.99,Weather View 32 v60,2013-09-08 00:07:00,
2013-09-07 20:17:00,74.8,32.2,29.91,West,271,0.0,0.0,21,0.00,,,-99.99,Weather View 32 v60,2013-09-08 00:17:00,
2013-09-07 20:22:00,74.7,32.0,29.91,West,271,0.0,0.0,21,0.00,,,-99.99,Weather View 32 v60,2013-09-08 00:22:00,
2013-09-07 20:32:00,74.3,31.7,29.91,West,271,0.0,0.0,21,0.00,,,-99.99,Weather View 32 v60,2013-09-08 00:32:00,
2013-09-07 20:37:00,74.3,32.9,29.91,West,271,0.0,0.0,22,0.00,,,-99.99,Weather View 32 v60,2013-09-08 00:37:00,
2013-09-07 20:42:00,74.1,32.7,29.91,West,271,0.0,0.0,22,0.00,,,-99.99,Weather View 32 v60,2013-09-08 00:42:00,
2013-09-07 20:47:00,74.1,32.7,29.91,West,271,0.0,0.0,22,0.00,,,-99.99,Weather View 32 v60,2013-09-08 00:47:00,
2013-09-07 20:52:00,73.9,33.7,29.91,West,271,0.0,0.0,23,0.00,,,-99.99,Weather View 32 v60,2013-09-08 00:52:00,
2013-09-07 21:02:00,73.6,33.4,29.91,West,271,0.0,0.0,23,0.00,,,-99.99,Weather View 32 v60,2013-09-08 01:02:00,
2013-09-07 21:07:00,73.4,33.3,29.91,West,271,0.0,0.0,23,0.00,,,-99.99,Weather View 32 v60,2013-09-08 01:07:00,
2013-09-07 21:12:00,73.4,34.3,29.91,West,271,0.0,0.0,24,0.00,,,-99.99,Weather View 32 v60,2013-09-08 01:12:00,
2013-09-07 21:22:00,73.2,35.2,29.91,West,271,0.0,0.0,25,0.00,,,-99.99,Weather View 32 v60,2013-09-08 01:22:00,
2013-09-07 21:32:00,72.9,35.9,29.91,West,271,0.0,0.0,26,0.00,,,-99.99,Weather View 32 v60,2013-09-08 01:32:00,
2013-09-07 21:42:00,72.7,36.7,29.91,West,271,0.0,0.0,27,0.00,,,-99.99,Weather View 32 v60,2013-09-08 01:42:00,
2013-09-07 21:48:00,72.5,36.5,29.91,West,271,0.0,0.0,27,0.00,,,-99.99,Weather View 32 v60,2013-09-08 01:48:00,
2013-09-07 21:57:00,72.5,38.4,29.91,West,271,0.0,0.0,29,0.00,,,-99.99,Weather View 32 v60,2013-09-08 01:57:00,
2013-09-07 22:03:00,72.5,39.2,29.91,West,271,0.0,0.0,30,0.00,,,-99.99,Weather View 32 v60,2013-09-08 02:03:00,
2013-09-07 22:12:00,72.3,39.9,29.91,West,271,0.0,0.0,31,0.00,,,-99.99,Weather View 32 v60,2013-09-08 02:12:00,
2013-09-07 22:17:00,72.1,39.8,29.91,West,271,0.0,0.0,31,0.00,,,-99.99,Weather View 32 v60,2013-09-08 02:17:00,
2013-09-07 22:27:00,72.0,39.6,29.91,West,271,0.0,0.0,31,0.00,,,-99.99,Weather View 32 v60,2013-09-08 02:27:00,
2013-09-07 22:32:00,71.8,39.4,29.91,West,271,0.0,0.0,31,0.00,,,-99.99,Weather View 32 v60,2013-09-08 02:32:00,
2013-09-07 22:42:00,71.6,40.1,29.91,West,271,0.0,0.0,32,0.00,,,-99.99,Weather View 32 v60,2013-09-08 02:42:00,
2013-09-07 22:49:00,71.4,39.9,29.91,West,271,0.0,0.0,32,0.00,,,-99.99,Weather View 32 v60,2013-09-08 02:49:00,
2013-09-07 22:57:00,71.2,39.8,29.91,West,271,0.0,0.0,32,0.00,,,-99.99,Weather View 32 v60,2013-09-08 02:57:00,
2013-09-07 23:02:00,71.2,39.8,29.91,West,271,0.0,0.0,32,0.00,,,-99.99,Weather View 32 v60,2013-09-08 03:02:00,
2013-09-07 23:12:00,70.9,39.5,29.91,West,271,0.0,0.0,32,0.00,,,-99.99,Weather View 32 v60,2013-09-08 03:12:00,
2013-09-07 23:22:00,70.9,40.3,29.91,West,271,0.0,0.0,33,0.00,,,-99.99,Weather View 32 v60,2013-09-08 03:22:00,
2013-09-07 23:27:00,70.9,40.3,29.91,West,271,0.0,0.0,33,0.00,,,-99.99,Weather View 32 v60,2013-09-08 03:27:00,
2013-09-07 23:37:00,70.7,40.1,29.91,West,271,0.0,0.0,33,0.00,,,-99.99,Weather View 32 v60,2013-09-08 03:37:00,
2013-09-07 23:47:00,70.5,40.0,29.91,West,271,0.0,0.0,33,0.00,,,-99.99,Weather View 32 v60,2013-09-08 03:47:00,
2013-09-07 23:52:00,70.5,40.7,29.91,West,271,0.0,0.0,34,0.00,,,-99.99,Weather View 32 v60,2013-09-08 03:52:00,